Photometre #849[NE_1.6_Dp] Portglenone_MO AOT

File : 20220921_849.hum

21/09/2022,07:10:59,TEMP=13.9,BA=5.64,STAT.A,ExtBa=12.20
21/09/2022,07:15:29,TEMP=14.1,BA=5.64,STAT.A,ExtBa=12.20
21/09/2022,07:20:45,TEMP=14.2,BA=5.64,STAT.A,ExtBa=12.20
21/09/2022,07:27:02,TEMP=14.2,BA=5.64,STAT.A,ExtBa=12.20
21/09/2022,07:34:38,TEMP=14.4,BA=5.64,STAT.A,ExtBa=12.20
21/09/2022,07:44:04,TEMP=14.5,BA=5.64,STAT.A,ExtBa=12.20
21/09/2022,07:56:03,TEMP=14.6,BA=5.64,STAT.B,ExtBa=12.20
21/09/2022,08:01:49,TEMP=14.8,BA=5.64,STAT.A,ExtBa=12.20
21/09/2022,08:08:19,TEMP=14.8,BA=5.64,STAT.A,ExtBa=12.20
21/09/2022,08:15:41,TEMP=14.9,BA=5.64,STAT.A,ExtBa=12.20
21/09/2022,08:24:09,TEMP=15.0,BA=5.64,STAT.A,ExtBa=12.20
21/09/2022,08:33:58,TEMP=15.1,BA=5.64,STAT.C,ExtBa=12.20
21/09/2022,08:45:32,TEMP=15.3,BA=5.64,STAT.A,ExtBa=12.20
21/09/2022,08:59:28,TEMP=15.4,BA=5.64,STAT.A,ExtBa=12.20
21/09/2022,09:16:39,TEMP=15.5,BA=5.64,STAT.A,ExtBa=12.20
21/09/2022,09:19:42,TEMP=15.7,BA=5.64,STAT.F,ExtBa=12.20
21/09/2022,09:56:53,TEMP=17.1,BA=5.56,STAT.D,ExtBa=12.10
21/09/2022,09:58:54,TEMP=17.1,BA=5.56,STAT.D,ExtBa=12.10
21/09/2022,10:04:41,TEMP=16.7,BA=5.56,STAT.D,ExtBa=12.10
21/09/2022,10:19:42,TEMP=17.3,BA=5.64,STAT.F,ExtBa=12.20
21/09/2022,11:00:36,TEMP=17.6,BA=5.56,STAT.D,ExtBa=12.10
21/09/2022,11:02:35,TEMP=18.0,BA=5.56,STAT.D,ExtBa=12.10
21/09/2022,11:04:41,TEMP=18.1,BA=5.56,STAT.D,ExtBa=12.10
21/09/2022,11:19:42,TEMP=18.4,BA=5.64,STAT.F,ExtBa=12.10
21/09/2022,11:57:50,TEMP=19.3,BA=5.52,STAT.D,ExtBa=12.10
21/09/2022,11:59:54,TEMP=19.3,BA=5.52,STAT.D,ExtBa=12.10
21/09/2022,12:04:41,TEMP=18.7,BA=5.52,STAT.D,ExtBa=12.10
21/09/2022,12:19:42,TEMP=19.0,BA=5.64,STAT.F,ExtBa=12.10
21/09/2022,12:56:34,TEMP=19.2,BA=5.52,STAT.D,ExtBa=12.10
21/09/2022,12:58:32,TEMP=19.2,BA=5.52,STAT.D,ExtBa=12.10
21/09/2022,13:04:42,TEMP=18.5,BA=5.52,STAT.D,ExtBa=12.10
21/09/2022,13:19:42,TEMP=19.3,BA=5.64,STAT.F,ExtBa=12.10
21/09/2022,13:58:39,TEMP=19.8,BA=5.52,STAT.D,ExtBa=12.10
21/09/2022,14:00:37,TEMP=19.7,BA=5.52,STAT.D,ExtBa=12.10
21/09/2022,14:04:41,TEMP=19.1,BA=5.52,STAT.D,ExtBa=12.10
21/09/2022,14:19:42,TEMP=18.4,BA=5.64,STAT.F,ExtBa=12.10
21/09/2022,14:34:41,TEMP=18.1,BA=5.64,STAT.D,ExtBa=12.10
21/09/2022,14:49:40,TEMP=17.8,BA=5.64,STAT.D,ExtBa=12.10
21/09/2022,15:04:40,TEMP=17.5,BA=5.64,STAT.D,ExtBa=12.10
21/09/2022,15:19:42,TEMP=17.3,BA=5.64,STAT.F,ExtBa=12.10
21/09/2022,15:22:45,TEMP=17.5,BA=5.56,STAT.A,ExtBa=12.10
21/09/2022,15:39:56,TEMP=16.9,BA=5.64,STAT.A,ExtBa=12.10
21/09/2022,15:53:27,TEMP=17.2,BA=5.64,STAT.h
21/09/2022,16:05:01,TEMP=17.2,BA=5.64,STAT.h
21/09/2022,16:14:50,TEMP=17.2,BA=5.64,STAT.h
21/09/2022,16:23:18,TEMP=17.2,BA=5.64,STAT.h
21/09/2022,16:30:40,TEMP=17.2,BA=5.64,STAT.h
21/09/2022,16:37:10,TEMP=17.2,BA=5.64,STAT.h
21/09/2022,16:42:56,TEMP=17.2,BA=5.64,STAT.h
21/09/2022,16:54:55,TEMP=17.2,BA=5.64,STAT.h
21/09/2022,17:04:20,TEMP=17.2,BA=5.64,STAT.h
21/09/2022,17:11:56,TEMP=17.2,BA=5.64,STAT.h
21/09/2022,17:18:13,TEMP=17.2,BA=5.64,STAT.h
21/09/2022,17:23:29,TEMP=17.2,BA=5.64,STAT.h
21/09/2022,17:24:17,TEMP=17.2,BA=5.64,STAT.h
21/09/2022,17:27:59,TEMP=17.2,BA=5.64,STAT.h